Date String (YYYY-MM-DD hh:mm:ss) UTC,Instrument flags,Ambient pressure (hPa),Sample flow (lpm),Bypass flow (lpm),Sample temperature (°C),Ambient temperature (°C),ASC tube jacket temperature (°C),LED temperature (°C),Box temperature (°C),Sample RH (%),Span deviation,Mass concentration (μg/m³),Mass concentration (μg/m³),Mass concentration (μg/m³)
DateTimeUTC,F1_M11,P_M11,Q1_M11,Q2_M11,T1_M11,T2_M11,T3_M11,T4_M11,T5_M11,U1_M11,ZSPAN_M11,X0_M11,X2_M11,X1_M11
2023-04-28 15:00:00,,0835.5,5.01,0.00,22.1,20.8,00.0,30.5,23.6,17.0,0000.0,0003.25,0002.42,0002.12
2023-04-28 15:01:00,,0835.6,5.00,0.00,22.1,20.8,00.0,30.5,23.6,17.2,0000.0,0003.27,0002.39,0002.08
2023-04-28 15:02:00,,0835.6,5.00,0.00,22.1,20.8,00.0,30.5,23.6,17.1,0000.0,0003.18,0002.37,0002.05
2023-04-28 15:03:00,,0835.5,5.00,0.00,22.1,20.9,00.0,30.5,23.6,16.6,0000.0,0003.06,0002.30,0001.99
2023-04-28 15:04:00,,0835.6,5.00,0.00,22.1,21.0,00.0,30.5,23.6,16.2,0000.0,0002.91,0002.23,0001.94
2023-04-28 15:05:00,,0835.6,5.00,0.00,22.2,21.0,00.0,30.5,23.7,16.5,0000.0,0002.85,0002.18,0001.90
2023-04-28 15:06:00,,0835.6,5.00,0.00,22.2,21.1,00.0,30.5,23.7,16.5,0000.0,0002.79,0002.14,0001.87
2023-04-28 15:07:00,,0835.6,5.01,0.00,22.2,21.1,00.0,30.5,23.8,16.7,0000.0,0002.66,0002.09,0001.84
2023-04-28 15:08:00,,0835.5,5.00,0.00,22.2,21.2,00.0,30.5,23.8,16.0,0000.0,0003.28,0002.10,0001.83
2023-04-28 15:09:00,,0835.8,5.00,0.00,22.3,21.2,00.0,30.5,23.8,15.8,0000.0,0003.39,0002.10,0001.84
2023-04-28 15:10:00,,0835.8,5.00,0.00,22.3,21.2,00.0,30.5,23.8,14.4,0000.0,0003.28,0002.01,0001.79
2023-04-28 15:11:00,,0835.7,5.00,0.00,22.3,21.3,00.0,30.5,23.9,14.3,0000.0,0004.29,0001.92,0001.73
2023-04-28 15:12:00,,0835.6,5.00,0.00,22.3,21.3,00.0,30.6,23.9,14.2,0000.0,0004.18,0001.85,0001.68
2023-04-28 15:13:00,,0835.5,5.01,0.00,22.4,21.3,00.0,30.6,23.9,14.0,0000.0,0004.11,0001.80,0001.62
2023-04-28 15:14:00,,0835.5,4.98,0.00,22.4,21.3,00.0,30.6,23.9,14.3,0000.0,0004.10,0001.74,0001.55
2023-04-28 15:15:00,,0835.5,5.00,0.00,22.4,21.4,00.0,30.6,23.9,14.7,0000.0,0004.30,0001.74,0001.49
2023-04-28 15:16:00,,0835.5,5.00,0.00,22.4,21.4,00.0,30.6,24.0,14.1,0000.0,0004.31,0001.72,0001.44
2023-04-28 15:17:00,,0835.5,5.00,0.00,22.5,21.4,00.0,30.7,24.0,14.1,0000.0,0004.17,0001.67,0001.40
2023-04-28 15:18:00,,0835.5,5.01,0.00,22.5,21.4,00.0,30.7,24.0,14.3,0000.0,0004.78,0001.64,0001.36
2023-04-28 15:19:00,,0835.6,4.98,0.00,22.5,21.4,00.0,30.7,24.0,14.5,0000.0,0007.69,0001.65,0001.34
2023-04-28 15:20:00,,0835.5,4.99,0.00,22.5,21.4,00.0,30.7,24.0,14.6,0000.0,0007.55,0001.66,0001.33
2023-04-28 15:21:00,,0835.5,5.00,0.00,22.5,21.5,00.0,30.7,24.0,14.6,0000.0,0007.64,0001.73,0001.35
2023-04-28 15:22:00,,0835.5,5.02,0.00,22.5,21.5,00.0,30.8,24.0,14.0,0000.0,0006.85,0001.74,0001.35
2023-04-28 15:23:00,,0835.5,4.98,0.00,22.6,21.5,00.0,30.8,24.0,13.9,0000.0,0006.76,0001.73,0001.35
2023-04-28 15:24:00,,0835.5,5.00,0.00,22.6,21.5,00.0,30.8,24.1,14.7,0000.0,0006.76,0001.72,0001.34
2023-04-28 15:25:00,,0835.5,5.01,0.00,22.6,21.5,00.0,30.8,24.1,14.9,0000.0,0007.25,0001.70,0001.34
2023-04-28 15:26:00,,0835.5,5.01,0.00,22.6,21.5,00.0,30.8,24.1,14.8,0000.0,0007.54,0001.68,0001.35
2023-04-28 15:27:00,,0835.5,5.00,0.00,22.7,21.5,00.0,30.8,24.2,14.7,0000.0,0007.58,0001.69,0001.37
2023-04-28 15:28:00,,0835.5,4.99,0.00,22.7,21.6,00.0,30.9,24.2,14.3,0000.0,0007.57,0001.70,0001.38
2023-04-28 15:29:00,,0835.5,4.99,0.00,22.7,21.6,00.0,30.9,24.2,14.1,0000.0,0007.55,0001.69,0001.39
2023-04-28 15:30:00,,0835.5,5.01,0.00,22.7,21.6,00.0,30.9,24.3,13.8,0000.0,0003.43,0001.64,0001.39
2023-04-28 15:31:00,,0835.5,5.01,0.00,22.7,21.6,00.0,30.9,24.3,13.7,0000.0,0003.36,0001.64,0001.39
2023-04-28 15:32:00,,0835.5,5.00,0.00,22.8,21.6,00.0,30.9,24.3,14.1,0000.0,0003.25,0001.60,0001.39
2023-04-28 15:33:00,,0835.4,5.01,0.00,22.8,21.7,00.0,30.9,24.3,14.2,0000.0,0003.28,0001.62,0001.39
2023-04-28 15:34:00,,0835.5,5.01,0.00,22.8,21.7,00.0,31.0,24.4,15.2,0000.0,0003.86,0001.66,0001.39
2023-04-28 15:35:00,,0835.5,5.00,0.00,22.8,21.7,00.0,31.0,24.4,14.2,0000.0,0004.02,0001.67,0001.41
2023-04-28 15:36:00,,0835.3,5.00,0.00,22.8,21.7,00.0,31.0,24.4,14.3,0000.0,0003.57,0001.67,0001.41
2023-04-28 15:37:00,,0835.3,4.99,0.00,22.9,21.7,00.0,31.0,24.4,14.4,0000.0,0002.81,0001.68,0001.44
2023-04-28 15:38:00,,0835.3,5.00,0.00,22.9,21.7,00.0,31.0,24.4,14.3,0000.0,0002.68,0001.66,0001.45
2023-04-28 15:39:00,,0835.3,5.00,0.00,22.9,21.7,00.0,31.1,24.4,13.8,0000.0,0002.69,0001.68,0001.46
2023-04-28 15:40:00,,0835.3,4.99,0.00,22.9,21.8,00.0,31.1,24.4,14.1,0000.0,0002.70,0001.68,0001.46
2023-04-28 15:41:00,,0835.3,5.00,0.00,22.9,21.8,00.0,31.1,24.4,14.0,0000.0,0002.68,0001.67,0001.46
2023-04-28 15:42:00,,0835.3,4.99,0.00,22.9,21.8,00.0,31.1,24.4,13.8,0000.0,0002.64,0001.65,0001.46
2023-04-28 15:43:00,,0835.3,5.00,0.00,22.9,21.8,00.0,31.1,24.5,13.9,0000.0,0003.37,0001.65,0001.45
2023-04-28 15:44:00,,0835.3,5.00,0.00,22.9,21.8,00.0,31.1,24.5,13.9,0000.0,0004.30,0001.62,0001.45
2023-04-28 15:45:00,,0835.3,5.01,0.00,23.0,21.8,00.0,31.1,24.5,13.7,0000.0,0003.98,0001.62,0001.46
2023-04-28 15:46:00,,0835.3,5.00,0.00,23.0,21.8,00.0,31.2,24.5,13.4,0000.0,0003.67,0001.61,0001.46
2023-04-28 15:47:00,,0835.4,5.00,0.00,23.0,21.8,00.0,31.2,24.5,13.5,0000.0,0003.78,0001.66,0001.46
2023-04-28 15:48:00,,0835.4,4.99,0.00,23.0,21.8,00.0,31.2,24.6,13.9,0000.0,0003.82,0001.68,0001.46
2023-04-28 15:49:00,,0835.4,5.00,0.00,23.0,21.9,00.0,31.2,24.5,14.4,0000.0,0003.89,0001.71,0001.47
2023-04-28 15:50:00,,0835.4,5.00,0.00,23.0,21.9,00.0,31.2,24.6,14.2,0000.0,0004.00,0001.71,0001.47
2023-04-28 15:51:00,,0835.4,5.00,0.00,23.1,21.9,00.0,31.2,24.6,14.5,0000.0,0004.02,0001.71,0001.48
2023-04-28 15:52:00,,0835.3,5.00,0.00,23.1,21.9,00.0,31.3,24.6,14.1,0000.0,0004.05,0001.72,0001.49
2023-04-28 15:53:00,,0835.3,5.01,0.00,23.1,21.9,00.0,31.3,24.6,14.4,0000.0,0004.19,0001.75,0001.50
2023-04-28 15:54:00,,0835.3,4.99,0.00,23.1,21.9,00.0,31.3,24.6,14.5,0000.0,0003.78,0001.76,0001.50
2023-04-28 15:55:00,,0835.3,5.00,0.00,23.1,21.9,00.0,31.3,24.6,14.7,0000.0,0002.52,0001.77,0001.51
2023-04-28 15:56:00,,0835.4,5.00,0.00,23.1,21.9,00.0,31.3,24.6,14.8,0000.0,0002.45,0001.77,0001.53
2023-04-28 15:57:00,,0835.4,5.00,0.00,23.1,21.9,00.0,31.3,24.7,14.5,0000.0,0002.44,0001.77,0001.54
2023-04-28 15:58:00,,0835.4,4.99,0.00,23.1,22.0,00.0,31.3,24.7,14.3,0000.0,0002.45,0001.79,0001.57
2023-04-28 15:59:00,,0835.3,5.00,0.00,23.1,22.0,00.0,31.4,24.7,14.2,0000.0,0002.43,0001.79,0001.57
